Location: Crescent
(42.8242°N, 73.7329°W)
Time: 21:01:01
(UTC+00:00)

SR - Pass Details

Date: 24 February 2026
Orbit: 573 x 848 km, 66.7° (Epoch: 6 March)

Event Time Altitude Azimuth Distance (km) Brightness Sun altitude
Rises 17:39:19 0° 317° (NW) 3,147 ? 37.4°
Reaches altitude 10° 17:41:55 10° 306° (NW) 2,268 ? 37.3°
Maximum altitude 17:46:15 27° 250° (WSW) 1,465 ? 37.2°
Drops below altitude 10° 17:50:48 10° 194° (SSW) 2,389 ? 37.0°
Sets 17:53:37 0° 182° (S) 3,348 ? 36.9°
